Wind_Speed
25 26 27 28 29 31 31 32 32 34 34 34 34 33 33 33 33 32 32 30 28 26 25 24 23 23 22 22 21 21 20 20 19 19 19 19 20 20 21 22 23 23 23 23 24 24 25 26 27 27 28 29 29 29 29 28 28 27 27 27 27 27 27 27 28 28 27 27 27 27 27 27 27 27 28 28 29 29 29 30 30 30 30 29 29 29
26 28 29 30 31 33 33 33 34 34 35 34 34 34 34 34 34 33 32 30 28 26 24 24 23 23 22 22 21 21 20 20 19 19 19 19 20 20 21 22 22 23 23 23 24 25 26 27 28 28 29 29 29 28 28 27 27 27 26 26 27 27 27 27 28 27 27 27 26 26 26 26 26 26 27 27 28 28 29 30 30 30 31 31 31 31
28 30 31 32 33 34 35 35 35 35 35 35 34 34 33 33 33 33 32 31 28 26 24 24 24 23 23 22 21 21 20 19 19 19 19 19 20 20 21 22 22 23 23 24 25 26 27 28 29 30 30 29 28 27 27 27 26 26 26 26 26 27 27 27 27 27 27 26 26 26 26 26 26 26 26 26 26 27 27 28 29 29 30 30 31 31
29 32 33 33 35 36 36 36 36 36 35 35 34 34 33 32 32 32 32 31 29 27 25 24 24 24 24 23 22 21 20 19 19 19 19 19 20 20 21 22 22 23 24 25 26 28 29 30 31 30 29 28 27 26 26 26 26 25 26 26 26 27 27 27 27 27 26 26 25 25 25 25 25 25 25 25 25 26 26 26 27 27 28 28 29 30
31 33 34 35 37 37 37 37 37 36 35 35 34 33 32 32 31 32 32 30 29 27 26 25 25 24 24 23 22 21 20 19 19 19 19 19 19 20 21 22 23 24 25 26 28 30 31 31 31 30 28 27 26 25 25 25 25 25 25 25 26 26 27 27 26 26 25 25 25 25 25 25 25 25 24 24 25 25 25 25 25 25 25 26 26 27
33 34 36 37 38 38 38 38 37 36 35 34 34 33 32 31 31 31 30 29 29 28 27 26 26 25 24 23 22 21 20 19 19 19 19 19 20 20 21 22 23 24 26 28 30 31 31 31 29 28 27 25 24 24 24 24 24 24 25 25 26 26 26 26 25 25 24 24 24 24 24 24 24 24 24 24 25 25 25 25 24 24 24 25 25 26
35 36 37 39 39 39 38 38 38 37 35 33 33 33 33 32 31 30 29 29 28 28 28 27 27 25 24 23 22 21 20 20 19 19 19 20 20 21 22 23 24 25 27 29 30 31 30 29 28 26 25 24 23 23 23 23 23 24 24 25 25 26 26 25 24 24 24 24 24 24 24 24 24 24 24 25 25 25 25 25 25 25 26 26 26 26
37 37 38 39 39 38 38 38 37 36 34 32 32 32 32 32 31 30 29 29 28 28 28 28 28 26 24 22 21 21 20 20 20 20 20 20 21 21 22 24 25 26 28 30 30 30 29 27 26 24 23 23 23 23 23 23 23 23 24 24 25 25 24 23 22 23 23 24 24 24 24 24 24 24 25 25 25 25 25 25 25 25 25 26 26 26
38 39 39 38 37 36 37 37 36 35 33 32 30 29 29 30 30 30 30 29 29 28 28 28 28 27 25 23 21 21 21 21 20 20 20 20 21 22 23 24 26 27 28 29 30 29 28 26 24 23 22 22 22 22 23 23 23 23 23 24 24 23 22 21 22 23 23 23 24 24 24 24 25 25 25 25 25 24 24 24 24 24 25 25 25 25
38 39 38 37 36 35 34 34 34 34 33 32 30 29 28 28 29 29 29 29 29 29 28 28 29 28 26 24 22 22 22 21 21 20 20 20 21 22 23 25 26 28 29 29 29 28 27 25 23 22 22 22 22 23 23 23 23 23 23 23 22 21 20 21 22 23 23 24 24 24 24 25 25 25 24 24 24 23 23 24 24 24 25 25 25 25
38 37 37 36 35 34 32 32 32 32 33 32 32 31 29 28 28 28 29 29 29 29 29 29 29 28 27 25 24 23 22 22 21 20 19 19 21 22 24 26 27 28 29 29 29 28 27 25 24 23 23 23 24 24 24 23 23 22 22 21 20 20 20 21 22 23 23 24 24 25 25 25 24 24 24 24 23 23 24 24 24 25 25 25 26 26
37 36 35 34 33 32 32 31 32 32 32 31 31 30 29 29 28 27 27 28 29 29 29 30 29 28 26 25 25 24 23 22 21 20 20 20 21 23 25 27 28 28 29 29 29 29 28 26 25 24 24 25 25 25 24 23 22 21 20 19 19 20 21 22 22 23 24 24 24 25 25 24 24 24 24 24 24 24 24 24 25 25 25 25 25 25
36 35 34 33 32 31 30 31 31 30 29 28 27 26 27 28 28 27 26 27 28 29 29 30 29 28 26 25 25 24 24 22 21 20 20 21 22 24 26 28 29 29 30 30 30 30 29 28 27 26 26 26 26 25 23 22 20 19 18 18 19 20 21 22 23 23 24 24 25 25 25 24 23 23 23 23 24 24 24 24 24 24 25 24 24 24
34 33 33 31 30 29 29 29 28 26 26 26 26 27 27 28 28 27 27 28 28 29 29 30 29 29 28 27 26 24 23 22 22 21 21 22 23 25 27 28 29 29 30 31 31 31 30 30 29 28 28 27 26 24 22 20 18 17 17 18 19 20 21 22 23 24 24 25 25 25 25 24 24 23 23 24 24 24 24 24 24 25 25 24 25 25
31 30 29 28 27 27 27 27 27 27 27 28 28 29 29 29 27 26 26 27 28 28 29 29 29 29 27 27 26 25 23 22 22 22 23 24 24 25 27 28 29 30 30 31 32 32 31 30 30 29 29 28 26 23 20 18 17 16 17 18 19 20 21 22 23 24 25 25 25 25 24 24 24 24 24 24 24 24 24 24 24 24 25 25 26 26
29 27 26 27 28 28 28 27 27 27 28 29 29 29 28 28 27 26 25 27 28 28 28 29 28 27 25 24 24 24 23 23 23 23 25 26 26 26 27 28 29 30 30 31 31 32 31 31 30 30 29 27 24 21 18 16 15 16 17 18 20 21 22 23 24 24 24 24 24 24 24 23 23 23 24 24 24 24 24 24 24 25 25 25 26 26
27 26 26 27 28 28 29 28 27 27 28 28 28 28 27 27 27 26 25 26 26 26 26 25 24 24 23 23 22 22 23 24 25 26 27 28 28 27 27 28 29 30 30 31 31 31 31 31 31 30 28 26 22 18 16 15 15 16 18 19 20 21 22 23 24 24 23 23 23 23 23 22 23 23 23 24 24 23 23 23 24 24 24 24 25 26
28 27 28 28 29 29 29 28 28 28 29 29 28 28 27 27 26 26 25 25 25 26 25 24 23 23 22 22 22 23 25 26 27 28 29 29 28 28 27 28 28 29 30 31 31 32 32 32 31 30 27 24 20 17 15 15 16 17 19 20 21 22 22 23 23 23 22 22 22 22 22 22 22 22 22 23 23 23 23 23 23 23 24 24 25 26
27 27 27 27 28 29 29 29 30 30 29 29 28 27 27 27 27 26 26 26 26 26 27 26 25 25 25 25 25 26 27 27 28 29 29 29 28 28 27 27 28 29 30 31 31 32 32 32 31 29 26 22 19 16 16 16 17 18 20 20 21 21 21 21 21 21 21 22 22 22 22 22 22 22 22 22 22 23 23 23 23 23 24 24 25 26
25 26 27 28 29 29 29 29 28 28 27 26 26 26 27 27 27 27 27 27 27 27 28 28 29 30 29 28 28 28 29 28 27 27 27 28 28 28 27 27 28 29 30 31 31 32 32 33 32 30 26 22 19 17 17 18 18 19 20 20 20 20 20 20 20 20 21 21 22 22 22 22 22 22 22 22 23 23 23 24 24 24 24 25 26 26
29 31 32 31 30 29 29 29 27 25 24 24 24 25 25 26 27 28 28 28 28 28 29 29 30 31 31 29 29 29 30 28 26 26 27 28 28 28 27 27 28 29 31 31 31 31 33 33 32 30 26 22 20 19 19 19 19 20 19 19 19 18 18 19 19 20 20 21 22 22 22 22 22 22 22 22 22 23 23 24 24 25 26 26 27 27
32 32 32 29 27 27 27 26 24 23 22 21 22 23 24 25 26 28 28 29 29 29 29 29 30 31 31 31 31 30 28 26 25 25 26 27 26 26 26 27 28 29 30 30 31 32 33 33 32 30 26 23 21 20 20 20 20 20 19 18 17 17 17 17 18 19 20 21 21 22 22 22 22 22 22 22 22 23 23 24 25 26 26 27 28 29
30 30 29 27 26 25 25 24 23 22 21 21 22 22 23 24 26 28 29 30 31 31 31 31 31 31 30 30 28 27 25 24 24 24 25 25 25 25 25 27 28 29 30 30 31 32 33 33 32 30 27 24 22 21 21 20 20 19 18 17 17 16 16 17 17 18 19 20 21 21 22 22 22 22 22 22 22 23 23 24 25 26 27 28 29 29
28 27 26 26 26 25 25 24 23 22 22 23 23 24 24 25 25 27 29 30 31 31 31 31 31 30 29 27 26 24 23 23 23 23 23 23 24 25 26 27 28 29 30 30 31 32 33 33 32 30 27 25 23 22 21 20 20 19 18 17 16 16 16 17 17 18 19 19 20 21 21 21 21 21 21 22 22 23 23 24 25 26 27 28 29 30
26 25 26 26 27 27 26 25 24 23 24 24 25 26 27 27 27 27 28 28 29 29 29 30 30 30 30 29 26 24 22 22 21 21 21 22 23 25 25 27 27 28 30 31 31 31 32 32 31 30 28 26 24 22 21 20 20 19 18 17 16 16 16 17 17 18 18 19 19 20 20 20 20 20 21 21 22 22 23 24 25 26 27 28 29 30
24 25 26 28 29 29 28 26 24 23 23 24 24 26 26 27 27 27 27 28 28 28 29 30 31 32 32 30 27 24 22 21 20 20 20 21 23 24 25 26 26 27 29 31 31 30 31 31 31 29 28 26 24 22 21 20 19 19 18 17 17 17 17 17 17 18 18 18 19 19 19 19 20 20 20 20 21 21 22 23 25 26 27 28 29 29
22 23 26 28 29 28 27 25 23 22 22 23 23 24 25 27 28 28 28 28 27 27 27 28 29 30 30 28 24 21 19 19 18 18 18 20 22 24 25 25 26 26 27 29 30 30 29 29 29 29 28 27 25 22 21 20 19 19 18 18 17 17 17 17 17 17 18 18 18 18 18 19 19 19 19 19 20 21 22 23 25 26 27 28 28 28
20 21 23 25 25 23 22 21 22 22 23 24 24 25 27 29 30 29 28 27 25 25 25 25 25 26 25 22 20 18 18 18 17 17 18 20 21 23 24 25 25 25 25 27 30 31 29 28 28 28 29 28 26 23 21 20 19 19 18 18 18 18 18 17 17 17 17 17 17 18 18 18 18 18 18 19 20 21 22 24 25 26 27 27 27 27
19 21 22 23 23 23 23 24 26 28 29 29 28 28 28 29 30 30 30 29 27 25 24 24 23 22 20 19 18 18 18 17 16 17 18 20 21 22 23 24 24 24 24 26 30 32 30 28 27 28 29 29 27 24 22 21 20 20 19 19 19 19 18 18 17 17 17 17 17 17 17 17 17 18 18 19 20 22 23 24 25 26 26 26 27 27
20 23 25 26 27 28 30 32 34 35 34 32 30 29 28 29 29 30 30 29 27 25 22 21 20 19 18 18 19 18 17 16 16 17 18 19 20 22 23 23 23 23 22 24 27 29 30 30 29 29 30 29 27 25 23 22 22 22 21 21 20 20 19 18 17 17 16 16 16 16 16 17 17 18 19 21 22 23 24 25 26 26 26 27 27 27
26 28 30 31 31 31 33 34 35 35 34 31 29 28 27 27 27 26 26 25 24 21 18 18 18 18 17 17 17 16 15 15 16 17 18 19 21 22 23 23 22 22 22 21 21 23 27 31 33 32 31 30 28 26 25 24 24 24 23 23 22 21 20 18 17 16 16 15 15 16 16 17 19 20 21 23 24 25 26 27 27 27 27 27 27 26
32 33 33 33 32 32 32 33 33 32 30 28 27 26 25 24 24 23 22 21 19 16 15 15 16 16 16 17 16 16 16 16 16 17 18 19 21 23 23 23 23 22 22 21 21 20 22 27 32 35 33 31 29 27 26 25 25 25 25 25 24 22 21 19 18 17 16 16 16 17 18 19 21 22 24 25 26 27 28 28 27 27 27 27 26 25
33 33 32 33 33 33 33 33 31 30 28 26 25 25 24 23 22 21 19 17 15 13 13 14 15 16 17 17 17 16 16 15 15 16 18 19 21 22 23 23 22 22 23 23 22 21 21 24 30 33 34 32 30 28 27 26 26 26 27 26 25 24 22 20 19 18 17 18 18 19 20 22 23 25 26 27 28 29 29 28 28 27 26 25 25 25
32 32 33 34 35 35 34 33 31 29 27 26 26 25 24 23 21 19 17 15 14 13 13 14 15 16 16 16 16 16 15 14 15 17 18 19 20 22 23 23 23 23 24 24 24 23 23 25 28 31 33 33 31 28 28 28 27 27 27 27 26 25 23 21 20 19 19 20 20 22 23 24 26 27 28 29 30 30 30 29 28 27 25 24 23 23
35 36 37 37 36 35 33 32 30 28 27 26 26 25 24 22 21 19 17 16 15 14 14 14 15 15 15 15 15 15 15 15 15 17 18 19 20 21 22 23 23 23 24 24 24 24 25 27 28 29 30 33 32 30 28 28 28 28 27 27 26 24 23 22 21 21 21 21 22 24 25 26 28 29 30 31 31 31 31 30 28 26 24 22 21 20
38 38 37 36 34 32 31 29 28 28 27 26 25 24 22 21 19 18 18 17 16 15 13 13 14 14 14 14 13 14 14 15 16 17 18 19 20 21 22 22 23 24 24 24 25 25 26 28 29 29 29 31 32 31 30 28 28 28 27 26 25 23 22 21 21 21 22 23 24 25 26 28 29 31 32 32 32 32 31 30 28 25 23 20 19 18
35 35 33 31 29 28 27 27 26 26 25 24 23 21 20 18 17 17 17 17 16 14 12 11 12 12 13 13 13 13 14 15 16 17 18 19 20 20 21 22 23 24 24 24 25 26 27 28 29 30 30 29 30 32 32 30 29 28 27 26 24 23 22 21 21 22 23 24 25 26 27 29 31 32 33 34 34 33 32 29 26 24 21 20 18 17
29 28 27 26 25 25 24 24 24 23 23 22 20 18 17 16 16 16 17 16 14 12 10 10 10 11 11 12 12 13 14 15 16 17 18 19 20 20 21 22 23 24 24 25 26 27 27 28 28 29 30 30 30 31 32 32 31 30 28 26 24 23 22 22 22 22 23 24 26 27 29 30 32 33 34 34 34 33 31 28 25 22 20 19 19 19
25 25 25 25 24 23 22 22 22 21 21 19 18 16 14 14 14 15 15 14 12 11 10 10 10 10 11 11 12 13 14 15 16 17 18 19 19 20 21 22 23 24 25 25 26 26 26 27 27 28 29 30 31 31 31 31 31 30 28 26 24 23 22 22 22 23 24 25 27 28 30 32 33 34 34 34 33 31 28 26 23 21 20 20 21 21
25 25 25 24 23 22 21 21 20 20 19 18 17 15 13 13 14 14 14 13 12 11 11 10 10 10 10 11 12 13 15 16 17 17 18 18 19 19 20 21 23 24 25 25 25 25 25 26 26 27 27 28 30 31 31 30 29 28 27 26 25 24 22 22 23 24 25 26 28 30 32 33 34 34 33 32 30 27 25 23 22 21 20 21 22 22
24 24 24 23 22 21 20 20 20 20 19 18 16 14 13 12 13 14 14 13 12 11 10 10 10 10 10 11 12 13 15 15 16 17 17 17 18 19 20 21 22 23 24 25 25 25 24 24 25 25 26 27 28 29 29 28 26 25 24 25 25 25 24 23 24 25 26 27 29 31 33 34 34 33 32 29 27 24 22 22 21 20 20 20 20 21
23 23 23 22 21 20 20 20 20 20 19 18 16 14 12 12 13 14 13 11 9 8 8 8 9 9 10 11 12 13 14 15 16 16 17 17 18 19 20 21 22 23 24 25 25 24 23 23 23 24 24 25 26 27 27 26 24 23 22 23 25 25 25 24 25 26 27 29 30 32 33 34 34 32 30 27 25 22 21 20 20 21 20 20 20 19
22 22 22 21 20 20 19 19 19 19 18 16 14 13 12 12 12 12 11 8 7 6 7 8 10 10 11 12 13 14 14 15 15 16 16 17 18 19 21 22 23 25 25 26 25 25 23 22 22 22 22 23 23 24 24 23 22 21 21 22 24 26 27 27 26 27 28 30 31 33 33 33 32 30 28 25 24 22 21 21 20 21 21 21 21 21
21 21 21 20 19 18 18 17 17 16 15 13 12 11 10 10 9 8 6 5 5 6 8 9 11 12 13 14 14 15 15 15 15 16 17 18 19 21 22 24 25 27 27 26 26 25 23 22 21 20 20 20 20 20 20 20 20 20 20 21 22 24 26 27 28 29 30 31 32 33 33 32 30 28 26 24 23 23 22 22 22 22 23 23 24 25
21 20 19 18 17 16 15 14 14 13 11 10 9 8 7 7 6 4 3 4 5 7 9 10 12 13 14 15 16 16 17 16 16 16 17 18 19 21 23 25 26 27 27 26 25 23 22 21 20 18 18 17 17 16 16 17 19 20 20 21 22 23 24 25 27 29 31 32 33 33 31 30 28 27 26 25 24 23 23 23 24 25 25 25 26 26
20 19 18 17 15 14 13 12 11 10 9 8 7 6 5 4 3 3 3 4 6 8 10 12 13 13 14 16 17 17 18 18 17 17 18 18 19 21 23 25 26 27 27 25 23 21 19 18 17 17 16 15 14 13 14 15 17 19 20 21 22 23 24 25 26 28 30 32 33 32 30 27 26 27 27 26 25 24 24 24 25 26 26 25 25 25
19 18 17 15 14 13 12 10 9 8 8 7 5 4 3 3 2 3 4 5 7 9 11 12 13 14 15 16 17 18 18 18 19 19 20 20 21 22 24 25 26 26 25 23 20 17 16 15 15 14 13 13 13 13 13 15 16 18 20 21 22 23 24 25 27 29 31 32 32 30 28 27 27 27 27 26 24 23 23 24 24 25 25 24 22 22
18 17 15 14 13 12 11 9 8 7 7 5 4 3 3 2 2 3 4 6 8 10 11 13 14 14 15 16 17 18 18 18 19 20 21 22 23 24 25 26 26 25 23 20 17 15 13 12 11 11 11 11 12 13 14 15 17 18 20 21 23 24 25 27 28 30 31 31 30 28 27 27 28 29 28 27 25 23 22 22 22 23 23 23 21 20
17 15 14 13 12 11 10 9 8 7 6 5 3 2 2 2 3 4 5 7 9 11 12 13 14 15 16 17 17 17 18 18 19 20 21 22 24 25 26 26 26 24 22 19 16 14 12 9 9 9 10 10 12 14 15 17 18 19 20 21 23 24 26 28 30 31 32 31 28 26 26 27 27 27 28 27 26 24 22 21 21 21 21 22 21 20
17 15 13 12 11 10 9 9 8 7 6 4 3 2 2 3 4 5 6 8 10 11 13 14 15 16 16 16 17 17 17 18 18 19 21 23 25 26 27 27 26 24 21 19 17 16 14 11 8 8 9 11 12 14 17 18 20 20 21 21 23 24 26 29 31 32 32 30 28 26 26 26 26 26 27 27 26 24 22 21 20 20 20 21 21 21
17 15 13 11 10 9 9 8 8 7 5 4 3 2 3 4 5 6 8 9 11 13 14 15 15 15 15 16 16 16 17 17 18 19 21 23 25 26 27 27 26 24 21 20 19 19 18 16 12 9 8 10 13 15 17 19 20 21 21 22 23 24 27 29 31 32 31 29 27 26 26 26 26 26 26 26 26 24 23 22 21 20 20 20 21 20
Wind_Direction
309 309 309 309 310 311 312 313 313 313 313 314 315 315 315 315 316 316 318 319 320 319 318 317 316 316 314 312 311 309 307 307 307 308 310 312 313 315 317 320 322 325 325 325 325 324 321 318 316 314 313 312 311 311 310 310 310 309 309 308 308 308 307 307 307 307 307 307 307 306 305 304 303 301 299 297 295 293 291 291 292 293 294 294 295 295
308 308 308 309 310 310 311 312 313 312 313 313 314 315 315 315 315 316 317 319 319 319 319 319 318 317 316 314 312 310 308 307 307 308 310 311 313 315 318 322 325 328 328 328 326 323 320 317 315 314 313 312 312 311 311 310 310 310 309 309 309 308 308 307 307 307 308 308 308 307 306 305 304 303 302 300 298 296 294 293 292 292 292 291 292 292
307 307 307 308 309 309 310 311 311 311 312 313 313 314 315 315 315 316 318 319 320 320 319 320 320 320 318 316 313 311 308 307 307 307 309 310 312 315 320 324 328 330 331 329 326 323 319 317 315 313 312 312 312 312 311 310 310 310 310 310 309 308 308 307 307 308 308 309 309 309 308 308 307 306 304 303 302 300 299 297 296 294 293 292 291 291
306 306 307 307 308 308 308 309 310 311 311 312 313 314 314 315 316 316 318 319 320 320 320 320 321 321 319 317 314 310 308 306 305 306 307 309 312 316 321 327 331 332 332 329 326 323 321 318 316 314 312 312 312 311 311 311 311 311 310 310 308 307 306 306 307 308 310 311 311 311 311 310 310 309 309 308 307 305 304 302 300 298 296 295 294 293
305 305 306 306 306 306 307 308 309 310 311 312 313 314 314 315 315 317 318 319 320 320 320 321 321 321 319 316 313 309 306 304 304 304 305 307 311 317 323 329 333 334 332 329 327 325 323 321 318 315 313 311 311 310 310 310 310 310 309 308 306 305 305 306 307 309 311 312 313 313 313 313 312 312 312 311 310 308 306 304 303 301 300 299 297 296
304 304 304 304 304 304 306 308 309 311 312 313 314 314 314 315 315 316 317 318 319 319 319 320 321 320 318 314 311 307 305 303 302 303 304 306 311 318 325 331 334 334 332 330 328 327 324 322 318 315 313 311 310 309 309 309 309 308 306 305 304 304 305 307 309 312 313 314 314 314 313 313 313 312 312 311 309 308 306 306 305 304 303 302 300 298
303 303 303 302 303 304 306 308 310 312 313 315 315 315 315 315 315 316 316 316 317 317 318 318 319 318 316 313 309 305 303 302 301 302 303 307 312 320 327 332 334 333 332 331 330 328 325 322 319 316 313 312 311 310 310 310 309 308 306 305 305 305 306 308 311 313 314 314 314 313 312 312 312 311 310 309 307 306 306 306 306 305 304 303 301 300
300 301 301 302 303 305 306 308 310 312 315 316 316 316 315 315 315 315 315 315 315 315 315 315 316 315 314 311 308 305 303 302 302 303 305 310 316 323 329 332 333 332 332 331 330 328 325 322 319 317 315 314 313 313 313 312 311 309 307 305 305 305 307 310 313 315 314 313 313 312 312 312 311 310 309 307 306 305 305 305 306 305 305 304 303 302
298 299 300 301 303 305 307 309 310 312 314 315 315 314 313 313 313 314 314 313 313 312 312 312 313 313 312 310 309 306 304 303 303 304 308 314 322 327 330 331 331 331 331 330 329 327 325 322 320 318 316 316 317 317 316 315 312 309 306 305 304 305 308 313 315 315 314 313 313 312 312 312 311 309 308 307 307 307 307 308 308 308 307 306 305 304
296 297 300 302 304 305 307 308 310 311 313 314 313 312 311 311 311 311 310 310 310 310 310 310 311 311 311 310 309 308 306 305 304 306 310 317 325 329 330 330 330 329 329 329 328 327 325 323 321 319 319 319 321 321 319 316 312 308 305 304 305 308 312 314 314 313 313 313 312 312 312 311 310 309 309 309 309 310 311 311 310 309 308 306 305 304
296 297 300 303 305 306 307 307 309 310 312 313 313 313 311 311 310 309 307 306 307 308 308 309 310 309 309 308 308 308 307 306 305 307 312 320 326 329 330 329 328 327 327 327 327 327 326 324 322 320 321 323 324 323 320 316 311 307 305 305 308 312 315 315 313 312 312 312 311 310 310 310 309 309 309 310 311 311 311 311 309 308 307 306 305 304
296 298 301 304 306 306 306 307 309 311 312 313 312 311 309 309 309 306 303 302 302 304 305 307 307 307 306 306 307 308 307 305 305 308 315 323 329 330 329 327 326 325 325 325 326 327 327 326 324 323 324 326 326 324 321 316 311 308 307 310 314 315 315 313 312 312 311 310 309 309 308 308 309 309 310 310 311 311 310 309 308 307 307 306 305 303
298 301 304 305 306 307 308 309 310 311 310 309 307 305 304 305 305 303 300 298 298 300 303 305 305 304 303 304 305 306 305 304 304 309 317 324 328 329 326 325 324 324 324 325 326 327 328 328 327 327 327 328 327 325 321 316 312 310 313 316 316 315 314 312 312 311 310 309 308 307 307 307 308 309 310 311 310 310 309 308 307 307 306 305 305 304
301 304 306 306 306 306 307 308 307 305 303 302 301 300 301 302 303 302 298 296 297 300 303 304 303 303 303 304 305 305 304 303 305 309 315 319 324 325 324 323 323 323 324 324 326 328 329 330 330 329 329 329 328 326 321 317 314 315 317 318 316 315 314 313 311 310 309 309 308 308 308 309 309 310 311 310 309 308 308 307 307 307 307 307 308 310
302 303 303 302 301 301 302 302 301 300 299 299 300 301 303 304 303 301 298 296 297 300 302 302 302 301 301 303 305 306 304 303 304 307 310 314 318 322 323 322 322 323 324 324 326 328 330 331 330 330 330 330 329 326 322 319 318 319 319 318 317 316 314 312 311 309 309 308 308 309 309 310 310 310 310 309 309 308 308 308 308 309 309 311 313 313
301 300 298 297 298 299 300 300 300 300 300 301 302 303 303 303 302 299 297 296 298 300 301 301 301 301 300 302 305 306 305 303 302 303 305 308 313 319 322 322 322 322 323 324 326 328 330 331 331 331 331 331 330 327 324 322 322 322 322 320 318 316 314 311 310 309 308 308 308 309 309 309 309 309 309 308 308 308 308 309 309 310 311 313 314 313
298 296 295 297 298 299 302 302 302 301 301 302 302 302 301 302 302 301 298 297 298 299 298 297 297 297 298 300 302 304 306 303 301 300 300 302 308 315 320 321 321 322 323 324 325 327 329 330 331 331 332 332 330 329 327 327 327 326 324 321 318 315 313 311 309 307 306 306 307 307 307 307 306 306 306 307 307 306 307 309 309 310 311 312 312 312
294 295 296 298 299 300 302 302 302 302 303 303 302 302 302 304 305 303 301 299 298 296 295 292 290 290 292 293 295 300 304 302 299 297 296 299 305 312 318 320 321 321 322 324 325 327 329 330 331 332 333 333 332 331 332 333 333 330 324 320 317 314 312 310 308 306 305 304 304 304 303 303 302 302 302 304 306 306 308 308 309 310 310 311 311 310
294 296 299 300 300 301 301 302 303 304 305 305 305 305 305 304 303 302 299 298 296 295 294 291 289 287 287 288 292 296 300 299 296 294 293 297 304 312 318 320 321 321 322 323 325 327 329 331 332 333 334 334 334 335 337 338 335 329 323 319 316 314 312 310 308 306 304 303 302 302 301 301 302 302 304 307 309 311 312 312 311 311 311 310 310 310
296 298 299 301 302 302 302 303 306 308 308 308 307 305 302 301 300 298 296 296 295 295 294 293 291 289 289 288 290 292 295 296 293 290 292 298 306 313 319 320 320 320 321 323 325 327 330 331 333 334 336 337 338 339 340 339 334 328 323 321 319 317 314 311 309 306 305 304 304 303 303 304 305 307 309 312 314 315 315 314 314 313 312 311 310 310
300 302 304 306 306 304 304 306 309 312 312 310 307 303 300 299 297 296 294 294 294 293 293 292 291 290 289 287 286 289 292 292 289 289 295 303 310 316 319 319 319 319 320 322 325 328 330 331 333 335 337 339 341 342 341 338 334 330 328 326 324 321 317 313 310 307 306 305 305 305 306 306 308 309 311 312 313 313 313 313 313 313 312 311 310 309
303 305 306 307 306 305 305 308 311 314 315 312 308 304 302 300 297 295 294 293 291 289 287 286 286 286 286 286 288 291 292 290 289 292 300 307 312 315 318 318 317 318 320 323 326 329 331 331 333 335 338 340 341 341 340 338 337 336 334 332 329 324 319 314 310 307 306 305 305 305 305 306 307 308 309 309 309 310 311 311 311 311 310 310 309 309
304 305 306 306 305 305 305 307 310 313 315 313 311 308 306 304 302 300 297 293 290 287 285 285 286 288 291 295 297 298 294 291 292 297 305 309 312 314 316 316 317 318 321 324 328 330 331 331 333 336 338 339 340 339 338 339 339 339 338 335 331 325 320 314 310 306 304 303 303 303 303 303 304 304 305 306 307 309 309 310 310 310 309 308 308 307
305 304 305 306 305 304 304 304 307 310 311 311 309 307 306 305 304 303 301 298 296 296 296 297 298 300 303 307 307 303 297 294 296 302 308 311 313 314 315 316 317 320 322 326 329 330 331 331 333 335 336 337 338 338 338 339 340 341 340 337 332 327 321 315 310 307 305 303 302 302 302 302 302 303 304 306 308 309 311 311 311 311 310 309 308 307
306 306 307 306 304 303 302 302 304 306 307 306 305 304 303 303 301 300 298 298 299 300 301 302 303 304 305 306 305 301 296 296 300 305 309 311 313 314 315 317 319 321 325 328 330 330 330 330 331 333 335 336 337 337 339 341 342 343 342 339 334 329 323 317 313 309 306 304 303 302 302 302 303 304 306 308 310 312 314 314 314 313 313 312 310 309
309 308 307 303 299 297 297 298 298 298 299 298 299 300 300 299 297 295 292 290 290 291 293 295 297 299 300 300 298 295 294 297 302 307 310 312 313 314 316 318 321 323 326 329 330 329 329 328 329 331 333 335 337 338 340 342 344 344 343 340 337 331 325 320 315 312 309 307 305 304 304 305 306 307 309 311 314 316 317 318 318 318 317 316 314 312
306 303 300 297 293 291 289 288 288 289 293 296 298 299 298 297 296 294 291 288 288 289 291 293 295 296 296 294 291 291 295 301 306 309 313 315 315 315 317 320 322 325 327 328 329 328 327 326 327 329 332 335 338 340 342 343 344 344 344 342 339 334 328 323 318 315 312 310 308 307 307 307 309 311 313 316 318 320 321 323 324 324 322 320 317 315
299 298 297 297 296 295 293 292 293 297 301 303 304 302 300 299 299 299 299 298 297 298 299 301 299 296 292 289 291 296 303 307 310 312 317 318 317 315 317 321 324 327 328 327 327 327 326 325 326 328 331 335 337 339 342 343 344 344 343 342 340 336 331 326 321 317 315 313 311 310 310 311 313 315 317 320 322 323 326 328 329 329 326 322 319 318
292 293 294 297 299 301 302 304 305 307 308 308 307 305 302 301 301 302 303 304 304 303 303 303 299 293 289 292 299 307 311 311 313 316 319 319 316 315 318 322 326 328 329 328 328 327 326 325 325 326 329 333 336 339 342 344 344 343 342 341 340 338 334 329 325 321 318 316 314 314 315 316 318 320 322 323 325 328 331 333 333 331 327 323 320 319
291 293 294 295 297 298 299 301 304 306 309 310 309 306 303 301 301 302 303 303 302 301 300 297 292 289 290 298 306 310 312 312 315 317 319 318 316 316 320 324 327 329 330 329 328 327 325 325 326 326 328 331 334 338 341 343 344 343 341 340 340 339 336 333 328 324 322 319 318 318 320 321 323 325 326 327 329 331 334 335 334 331 327 323 321 319
295 296 297 298 298 299 300 301 303 306 309 310 309 307 304 303 302 302 303 303 302 300 296 290 287 288 293 301 306 307 308 311 314 316 317 317 317 318 322 325 327 328 329 329 327 324 322 323 325 327 329 331 334 337 340 342 342 342 341 340 339 339 338 335 332 328 325 323 323 323 325 326 328 329 330 331 332 334 334 334 333 330 327 323 320 317
295 297 299 301 302 304 305 306 307 308 310 310 310 309 307 306 304 303 302 302 301 298 291 285 286 291 298 302 303 304 306 311 314 315 317 319 319 320 322 325 327 327 327 327 324 320 317 318 322 326 329 331 333 335 338 340 341 341 340 339 339 339 338 337 334 331 329 327 327 328 329 330 331 332 333 333 334 334 334 333 331 329 327 324 320 316
295 298 301 303 306 307 308 309 309 310 310 311 311 311 310 308 305 302 300 299 297 291 284 283 289 296 300 302 302 304 308 314 316 316 317 319 320 320 322 324 325 326 326 326 323 319 315 314 317 322 326 329 331 334 336 338 339 340 339 338 338 339 339 338 337 334 332 331 331 331 332 332 333 334 334 335 334 334 333 332 330 329 326 323 319 316
299 302 304 306 307 307 308 308 309 309 310 310 311 311 310 307 303 299 295 291 285 280 279 284 290 296 300 301 303 305 310 315 316 315 317 318 319 320 321 323 324 325 325 324 323 320 317 315 316 319 322 326 329 332 335 336 337 338 339 338 338 338 339 340 339 337 335 334 334 334 334 334 335 335 335 335 334 333 332 331 330 328 325 322 319 315
301 303 305 306 307 307 308 308 308 308 308 309 309 309 308 305 301 295 287 279 272 270 275 283 290 295 299 301 304 308 312 314 314 315 316 317 318 320 321 322 323 324 324 323 322 320 318 317 317 318 319 322 326 330 333 334 335 336 337 337 337 338 340 341 341 340 338 337 336 336 336 336 336 335 335 334 334 333 332 330 329 327 323 319 316 314
301 303 304 306 308 308 309 308 308 308 308 308 308 307 306 303 298 291 281 271 265 265 271 280 290 296 300 303 306 309 312 312 313 315 317 318 319 319 320 320 322 323 323 322 321 319 317 317 317 318 318 319 322 326 331 333 334 335 336 336 337 338 340 342 343 342 340 339 338 338 338 337 336 335 334 334 333 332 331 330 328 326 323 318 314 312
302 305 308 310 312 313 312 311 311 310 310 310 309 308 306 302 296 287 278 270 266 266 272 283 292 299 303 305 307 308 310 312 314 316 318 319 319 319 319 319 321 322 321 320 319 318 317 316 317 318 318 317 318 321 326 330 333 334 336 336 337 338 341 344 345 343 342 340 340 339 339 338 337 335 334 334 333 332 331 330 329 328 325 321 317 315
310 313 317 319 320 320 318 317 316 315 315 314 313 311 307 302 295 287 280 274 272 274 281 291 297 302 304 306 308 309 312 315 318 319 320 320 319 318 318 319 320 321 321 319 318 317 316 315 314 315 316 317 318 320 322 326 329 332 334 335 336 339 342 345 345 344 343 342 341 340 339 338 337 336 335 334 333 333 332 332 333 332 330 327 324 322
321 324 326 327 326 325 323 321 320 319 319 319 318 315 311 304 298 292 287 285 284 286 290 295 298 300 302 306 310 314 317 319 320 320 320 320 319 318 318 319 320 321 322 321 319 317 315 313 312 312 313 315 317 319 322 324 327 330 332 333 335 339 343 345 345 345 344 343 342 341 339 338 337 336 336 335 335 336 337 338 339 340 340 337 334 332
327 328 329 328 328 326 324 322 321 321 321 322 321 318 313 305 300 297 295 294 293 292 292 293 294 296 301 307 314 319 321 322 321 320 320 320 320 320 320 321 322 323 324 323 321 318 316 314 313 313 313 314 315 317 319 323 327 330 332 333 335 337 342 345 346 346 345 343 342 341 339 338 338 337 337 337 338 340 343 346 348 349 348 347 345 342
328 328 327 327 326 325 323 321 320 320 321 321 320 317 310 302 297 294 291 289 287 285 286 288 292 296 303 311 318 322 323 322 321 320 320 322 323 324 324 324 325 326 326 325 323 321 319 316 315 314 314 314 314 315 318 322 326 330 332 333 334 335 339 343 346 346 344 343 342 341 340 339 338 338 339 340 343 347 352 354 356 356 356 354 352 349
326 326 325 325 324 322 319 318 318 318 318 319 317 312 304 296 290 287 284 279 275 277 283 288 294 301 309 316 320 322 323 322 321 321 322 324 325 326 327 327 328 329 329 328 326 324 321 319 317 315 315 314 314 315 317 322 326 330 332 333 334 335 338 342 345 345 343 342 341 341 341 340 340 341 342 345 350 355 1 4 4 4 3 1 0 359
325 325 324 323 321 319 317 316 316 315 316 315 313 307 300 291 284 278 274 271 272 279 288 292 297 304 311 317 320 322 323 323 323 324 325 326 327 328 329 330 331 331 332 330 328 326 323 321 318 316 315 314 313 315 317 322 327 330 333 335 335 336 337 341 343 343 342 342 342 342 342 343 343 345 347 352 358 4 9 11 12 12 11 9 9 11
325 325 325 323 321 319 318 317 316 315 314 312 309 304 296 286 277 270 267 270 280 289 294 295 300 306 312 316 319 323 326 326 327 328 328 328 329 329 330 332 332 333 333 332 330 327 324 321 319 316 314 313 314 316 319 324 327 330 334 336 336 336 337 339 341 341 341 341 343 344 345 346 347 350 354 359 5 10 14 16 18 19 20 20 19 19
326 327 327 326 324 323 324 322 321 319 318 316 313 306 297 288 279 273 276 287 294 297 297 299 305 312 317 318 320 324 328 330 330 330 330 330 330 330 331 332 332 333 333 332 330 327 324 321 319 317 316 315 316 319 323 326 329 331 334 336 337 337 337 339 340 340 341 342 343 346 349 351 354 356 -0 5 11 17 20 22 22 24 25 26 26 26
327 329 330 331 331 332 332 332 332 331 329 326 323 319 312 304 297 295 297 299 300 301 301 304 311 318 323 324 325 328 332 333 333 332 331 330 330 331 331 332 332 332 332 332 331 329 325 321 318 318 318 319 321 324 328 330 331 332 334 336 337 338 338 340 341 341 341 343 345 349 354 358 1 2 3 7 14 22 28 29 28 28 30 31 31 30
330 332 334 335 336 338 340 342 341 337 331 329 333 336 335 323 310 302 302 301 302 303 305 309 315 323 328 331 333 334 336 336 335 333 332 331 331 331 332 332 332 332 333 334 334 333 328 323 320 321 323 325 327 330 333 334 334 335 336 338 338 338 339 340 342 343 344 346 349 354 1 5 6 6 7 11 17 25 32 35 35 35 35 35 33 31
331 333 335 336 337 338 339 340 335 327 322 325 334 342 335 321 307 300 302 302 303 305 310 316 322 328 333 336 337 338 338 337 336 334 333 334 333 333 333 334 334 334 336 338 341 343 340 333 327 326 329 331 332 333 336 338 339 340 340 340 340 339 339 342 344 346 348 350 355 1 8 10 8 7 9 12 17 23 30 36 40 40 39 37 34 31
330 333 335 335 333 332 331 328 322 315 312 317 324 328 319 312 308 306 305 303 304 308 315 321 326 331 335 337 338 339 339 337 336 335 335 336 336 336 336 337 337 338 340 343 348 354 360 354 342 334 336 339 340 339 341 343 343 343 343 342 341 341 341 343 346 349 351 355 1 9 15 16 14 11 9 8 10 16 24 32 38 40 39 37 35 32
330 332 332 330 328 325 323 317 310 304 302 304 306 303 305 309 311 308 305 304 306 312 318 324 329 333 336 338 339 339 338 337 336 337 338 339 339 339 340 341 341 343 345 348 351 358 7 15 9 352 345 346 348 348 347 346 345 344 344 344 344 343 343 345 347 350 353 359 8 16 21 21 20 17 13 9 8 12 18 26 32 36 36 34 32 30
329 329 327 322 318 315 312 305 299 296 296 299 302 302 306 311 312 309 306 306 310 316 322 328 333 337 338 339 339 339 338 338 339 341 342 342 342 342 343 344 346 349 351 354 356 359 3 9 14 15 10 357 356 356 352 348 346 344 344 345 346 346 346 347 349 352 356 4 13 20 23 23 21 19 15 11 9 10 14 20 27 31 31 29 26 23
Height
1514 1513 1512 1512 1511 1510 1509 1508 1507 1506 1505 1504 1503 1502 1501 1500 1499 1498 1497 1496 1494 1493 1492 1490 1489 1488 1487 1486 1485 1484 1483 1482 1481 1480 1479 1479 1478 1477 1476 1475 1473 1472 1471 1469 1468 1467 1465 1464 1463 1461 1460 1458 1456 1455 1453 1452 1450 1449 1447 1446 1445 1443 1442 1440 1439 1437 1436 1435 1434 1433 1432 1431 1430 1429 1428 1427 1426 1425 1424 1423 1422 1421 1420 1419 1418 1417
1512 1511 1510 1510 1509 1507 1507 1506 1505 1504 1503 1502 1501 1500 1499 1497 1496 1495 1494 1493 1492 1492 1490 1489 1487 1486 1485 1484 1483 1482 1481 1480 1479 1479 1478 1477 1476 1475 1474 1473 1472 1470 1469 1467 1466 1465 1464 1462 1461 1459 1457 1455 1454 1452 1451 1449 1448 1447 1445 1444 1442 1441 1439 1438 1437 1435 1434 1433 1432 1431 1430 1429 1428 1427 1426 1424 1423 1422 1422 1421 1419 1419 1418 1417 1416 1416
1510 1509 1508 1508 1507 1506 1504 1504 1503 1502 1501 1499 1498 1497 1496 1495 1494 1493 1492 1491 1490 1489 1488 1487 1486 1485 1483 1482 1482 1481 1480 1479 1478 1477 1476 1475 1475 1474 1472 1471 1470 1468 1467 1466 1464 1463 1462 1460 1458 1457 1455 1453 1451 1450 1449 1447 1446 1445 1443 1442 1440 1439 1437 1436 1434 1433 1432 1431 1430 1429 1427 1427 1426 1424 1423 1422 1421 1420 1419 1418 1417 1417 1416 1415 1414 1413
1509 1507 1507 1506 1505 1503 1503 1502 1501 1500 1499 1497 1496 1495 1494 1492 1491 1490 1489 1489 1488 1487 1486 1485 1484 1483 1482 1481 1480 1479 1478 1477 1476 1475 1475 1474 1473 1472 1471 1469 1468 1467 1465 1464 1463 1461 1459 1458 1456 1454 1452 1451 1449 1448 1447 1445 1444 1442 1441 1440 1438 1437 1435 1433 1432 1431 1430 1429 1428 1427 1426 1425 1423 1422 1421 1420 1419 1418 1417 1416 1415 1414 1413 1412 1412 1411
1507 1506 1504 1503 1502 1501 1500 1500 1499 1497 1496 1495 1494 1492 1491 1490 1489 1488 1487 1486 1486 1485 1484 1483 1482 1481 1480 1479 1478 1477 1476 1475 1475 1474 1473 1472 1472 1470 1469 1467 1466 1465 1463 1462 1461 1459 1457 1455 1453 1452 1450 1448 1447 1446 1444 1443 1442 1441 1439 1437 1436 1434 1433 1432 1430 1429 1428 1427 1426 1425 1424 1423 1422 1421 1419 1418 1417 1416 1415 1414 1413 1412 1411 1410 1410 1408
1505 1504 1502 1502 1500 1499 1498 1497 1496 1495 1494 1492 1491 1490 1489 1488 1487 1486 1485 1484 1483 1482 1482 1481 1480 1479 1478 1477 1476 1475 1474 1474 1473 1472 1471 1471 1470 1469 1467 1466 1464 1463 1462 1460 1459 1457 1455 1453 1451 1449 1448 1446 1445 1444 1442 1441 1440 1438 1437 1435 1434 1432 1431 1430 1429 1427 1427 1426 1424 1423 1422 1421 1420 1419 1418 1417 1416 1415 1413 1412 1411 1410 1409 1408 1407 1406
1502 1502 1501 1499 1498 1497 1496 1494 1493 1493 1492 1490 1488 1487 1486 1485 1485 1484 1483 1482 1481 1480 1479 1479 1478 1477 1477 1476 1475 1474 1473 1472 1471 1470 1470 1469 1468 1467 1465 1463 1462 1461 1460 1458 1457 1455 1453 1451 1449 1447 1446 1444 1443 1442 1441 1439 1438 1436 1435 1433 1432 1430 1429 1428 1427 1426 1425 1424 1423 1422 1421 1420 1418 1417 1417 1415 1414 1412 1411 1410 1409 1408 1407 1406 1405 1404
1500 1499 1499 1497 1496 1495 1493 1492 1492 1491 1490 1488 1487 1485 1484 1483 1482 1482 1481 1480 1479 1478 1477 1476 1476 1475 1475 1474 1473 1472 1471 1470 1469 1468 1468 1467 1466 1464 1463 1462 1460 1459 1458 1457 1455 1453 1451 1449 1447 1446 1444 1443 1442 1440 1439 1437 1436 1434 1432 1431 1430 1428 1427 1426 1425 1424 1423 1422 1421 1420 1419 1418 1417 1416 1415 1413 1412 1411 1410 1409 1407 1407 1406 1404 1403 1402
1499 1497 1497 1496 1495 1493 1491 1490 1489 1489 1488 1487 1485 1484 1483 1481 1480 1479 1478 1478 1477 1476 1476 1475 1473 1473 1472 1472 1471 1470 1469 1468 1467 1467 1466 1465 1464 1462 1461 1460 1458 1457 1456 1455 1453 1452 1450 1448 1446 1444 1443 1441 1440 1438 1437 1435 1434 1432 1431 1429 1428 1427 1425 1424 1423 1423 1422 1421 1419 1418 1417 1416 1415 1414 1413 1412 1410 1409 1408 1407 1406 1405 1404 1402 1402 1401
1497 1496 1494 1493 1492 1492 1490 1488 1487 1487 1486 1485 1484 1483 1482 1480 1479 1477 1476 1476 1475 1474 1473 1473 1472 1471 1470 1469 1469 1468 1467 1466 1466 1465 1464 1463 1462 1460 1459 1458 1457 1455 1454 1453 1452 1450 1448 1446 1445 1443 1441 1440 1438 1437 1435 1433 1432 1430 1428 1427 1426 1425 1424 1423 1422 1421 1420 1419 1418 1417 1416 1414 1413 1412 1411 1410 1409 1407 1406 1405 1404 1403 1402 1401 1400 1399
1495 1494 1493 1491 1490 1489 1489 1487 1486 1485 1484 1482 1481 1480 1480 1479 1478 1477 1475 1473 1472 1472 1471 1471 1470 1469 1468 1467 1467 1466 1466 1464 1463 1463 1462 1461 1460 1458 1457 1456 1455 1453 1452 1451 1450 1448 1447 1445 1443 1441 1439 1438 1436 1434 1433 1431 1429 1428 1426 1425 1424 1423 1422 1421 1420 1419 1418 1417 1416 1415 1414 1413 1412 1410 1409 1408 1407 1406 1405 1404 1403 1402 1400 1399 1398 1397
1493 1492 1491 1490 1489 1487 1487 1485 1484 1483 1482 1481 1479 1478 1477 1477 1477 1476 1474 1472 1471 1470 1470 1468 1468 1467 1467 1465 1464 1464 1463 1462 1462 1461 1460 1459 1457 1456 1455 1454 1453 1452 1451 1449 1448 1446 1444 1442 1441 1439 1437 1436 1434 1432 1431 1429 1427 1426 1424 1423 1422 1422 1421 1420 1419 1417 1417 1416 1414 1413 1412 1411 1410 1408 1407 1406 1405 1404 1403 1402 1401 1400 1398 1397 1396 1395
1492 1490 1489 1488 1487 1485 1484 1483 1482 1481 1480 1479 1478 1477 1476 1475 1474 1474 1472 1471 1470 1469 1468 1467 1466 1465 1464 1464 1463 1462 1461 1460 1459 1458 1457 1456 1455 1454 1453 1452 1451 1450 1448 1447 1445 1444 1442 1440 1438 1437 1435 1433 1432 1430 1428 1427 1425 1424 1422 1422 1421 1420 1419 1418 1417 1416 1415 1413 1412 1411 1410 1409 1407 1407 1406 1405 1404 1402 1401 1400 1399 1398 1397 1395 1394 1393
1490 1488 1487 1486 1485 1484 1483 1482 1482 1481 1480 1479 1478 1477 1475 1474 1473 1472 1471 1469 1468 1467 1467 1465 1464 1462 1462 1462 1461 1460 1459 1458 1457 1456 1455 1454 1453 1453 1452 1450 1449 1448 1446 1445 1443 1441 1440 1438 1436 1434 1433 1431 1430 1428 1426 1425 1423 1422 1421 1420 1419 1418 1417 1416 1415 1414 1413 1412 1410 1409 1408 1407 1406 1405 1404 1403 1402 1401 1399 1398 1397 1396 1395 1393 1392 1391
1488 1487 1486 1485 1484 1483 1483 1482 1481 1479 1478 1477 1476 1474 1472 1471 1471 1470 1469 1467 1466 1466 1465 1463 1462 1461 1460 1459 1459 1458 1457 1456 1455 1454 1453 1452 1452 1452 1450 1448 1447 1446 1444 1442 1441 1439 1437 1436 1434 1432 1431 1429 1427 1426 1424 1423 1422 1420 1420 1419 1418 1417 1416 1415 1413 1412 1411 1410 1408 1407 1406 1405 1404 1403 1402 1401 1400 1399 1397 1396 1395 1394 1393 1392 1390 1389
1487 1486 1485 1483 1482 1481 1480 1480 1478 1477 1475 1474 1473 1472 1471 1470 1469 1468 1468 1466 1465 1464 1463 1462 1460 1458 1457 1457 1457 1456 1455 1454 1452 1452 1451 1450 1450 1450 1449 1447 1445 1444 1442 1441 1439 1437 1435 1434 1432 1430 1429 1427 1426 1424 1422 1421 1420 1419 1418 1417 1416 1415 1414 1413 1412 1410 1409 1408 1407 1406 1404 1403 1402 1401 1400 1399 1398 1397 1396 1394 1393 1392 1391 1390 1389 1387
1485 1484 1482 1481 1480 1478 1477 1477 1476 1475 1473 1472 1471 1470 1469 1468 1467 1467 1466 1465 1464 1463 1462 1461 1460 1458 1456 1455 1455 1455 1454 1452 1451 1450 1450 1448 1448 1448 1447 1445 1443 1442 1441 1439 1437 1436 1434 1432 1430 1429 1427 1425 1424 1422 1421 1420 1418 1417 1417 1416 1415 1414 1412 1411 1410 1408 1407 1406 1405 1404 1402 1402 1401 1399 1398 1397 1396 1395 1394 1392 1392 1390 1389 1388 1387 1386
1483 1482 1481 1479 1478 1477 1476 1475 1474 1472 1471 1470 1469 1468 1467 1466 1466 1465 1464 1463 1462 1462 1461 1460 1459 1457 1456 1454 1453 1453 1452 1451 1450 1449 1448 1447 1446 1446 1445 1444 1442 1440 1439 1437 1436 1434 1432 1430 1429 1427 1426 1424 1422 1421 1419 1418 1417 1416 1415 1414 1413 1412 1411 1409 1408 1407 1405 1404 1403 1402 1401 1400 1398 1397 1396 1395 1394 1393 1392 1391 1390 1388 1387 1386 1385 1384
1481 1480 1480 1478 1477 1475 1474 1473 1472 1471 1469 1468 1467 1466 1465 1464 1464 1463 1462 1462 1461 1460 1459 1458 1457 1456 1455 1453 1452 1451 1451 1450 1448 1447 1446 1445 1444 1444 1444 1442 1440 1439 1437 1436 1434 1432 1430 1428 1427 1425 1424 1422 1421 1419 1418 1417 1416 1415 1414 1413 1412 1410 1409 1407 1406 1405 1403 1402 1401 1400 1399 1398 1397 1396 1394 1393 1392 1391 1390 1389 1388 1387 1386 1384 1383 1382
1479 1478 1478 1477 1476 1474 1472 1471 1470 1469 1468 1467 1466 1465 1464 1463 1462 1462 1461 1460 1459 1458 1457 1456 1455 1453 1452 1451 1451 1450 1449 1448 1447 1446 1444 1443 1443 1442 1442 1441 1439 1437 1436 1434 1432 1430 1428 1426 1425 1423 1422 1421 1419 1418 1417 1415 1414 1413 1412 1411 1410 1408 1407 1406 1404 1403 1402 1400 1399 1398 1397 1396 1395 1394 1393 1392 1391 1390 1388 1387 1386 1385 1383 1382 1381 1380
1478 1477 1476 1476 1474 1472 1470 1469 1469 1468 1467 1466 1465 1464 1462 1462 1461 1460 1459 1458 1457 1456 1454 1453 1452 1451 1450 1450 1449 1448 1447 1447 1446 1444 1443 1442 1441 1441 1440 1439 1437 1436 1434 1432 1431 1429 1427 1425 1423 1422 1421 1419 1418 1417 1415 1414 1413 1412 1411 1409 1408 1407 1405 1404 1402 1401 1400 1399 1397 1397 1396 1394 1393 1392 1391 1390 1389 1388 1387 1386 1384 1383 1382 1380 1379 1378
1477 1475 1474 1473 1473 1471 1469 1468 1467 1467 1466 1465 1464 1462 1461 1460 1459 1458 1457 1456 1454 1453 1452 1451 1450 1449 1448 1448 1447 1447 1447 1446 1445 1443 1442 1441 1440 1439 1438 1437 1436 1434 1432 1430 1428 1427 1425 1423 1422 1421 1419 1418 1417 1415 1414 1413 1412 1411 1409 1408 1406 1405 1403 1402 1401 1400 1398 1397 1396 1395 1394 1393 1392 1391 1390 1389 1387 1386 1385 1384 1383 1381 1380 1378 1377 1376
1475 1473 1472 1472 1471 1469 1468 1467 1466 1465 1465 1464 1463 1461 1460 1459 1458 1456 1455 1454 1453 1452 1451 1450 1449 1448 1447 1447 1447 1446 1446 1444 1443 1442 1441 1439 1438 1437 1437 1436 1434 1432 1430 1429 1427 1425 1423 1422 1420 1419 1418 1417 1415 1414 1413 1412 1410 1409 1407 1406 1405 1403 1402 1401 1399 1398 1397 1396 1394 1393 1392 1391 1390 1389 1388 1387 1386 1385 1383 1382 1381 1379 1378 1377 1375 1373
1473 1472 1470 1469 1469 1468 1467 1466 1464 1464 1463 1462 1461 1460 1459 1458 1457 1455 1454 1453 1452 1450 1449 1448 1447 1447 1446 1446 1445 1445 1444 1443 1442 1441 1440 1438 1437 1436 1435 1434 1432 1430 1428 1427 1425 1423 1421 1420 1419 1417 1416 1415 1414 1413 1412 1410 1409 1407 1406 1405 1403 1402 1401 1399 1398 1397 1395 1394 1393 1392 1391 1390 1389 1388 1387 1386 1384 1383 1382 1380 1379 1377 1376 1374 1372 1371
1471 1469 1468 1467 1467 1466 1465 1464 1463 1462 1461 1460 1459 1457 1457 1456 1455 1454 1453 1452 1450 1449 1448 1447 1446 1445 1444 1444 1444 1443 1443 1442 1441 1440 1438 1437 1436 1434 1433 1432 1431 1428 1426 1425 1423 1422 1420 1419 1417 1416 1415 1414 1412 1412 1410 1409 1407 1406 1405 1403 1402 1401 1399 1398 1397 1395 1394 1393 1392 1390 1389 1388 1387 1386 1385 1384 1383 1382 1380 1379 1377 1375 1374 1372 1370 1369
1468 1467 1466 1466 1465 1464 1463 1462 1462 1461 1460 1460 1459 1457 1456 1455 1453 1452 1450 1449 1449 1448 1447 1446 1444 1443 1442 1442 1442 1442 1441 1440 1439 1438 1437 1436 1434 1433 1432 1431 1429 1427 1425 1423 1422 1421 1419 1417 1416 1415 1414 1412 1411 1410 1409 1407 1406 1405 1403 1402 1401 1399 1398 1397 1395 1394 1392 1391 1390 1389 1388 1387 1386 1385 1384 1382 1381 1380 1379 1377 1376 1374 1372 1370 1368 1366
1468 1467 1466 1465 1464 1463 1462 1462 1461 1460 1460 1459 1458 1457 1456 1454 1452 1450 1448 1447 1447 1446 1445 1444 1443 1442 1441 1441 1440 1440 1439 1438 1437 1437 1436 1435 1433 1432 1430 1429 1428 1426 1424 1422 1421 1420 1418 1416 1415 1413 1412 1411 1409 1408 1407 1406 1405 1403 1402 1401 1399 1398 1397 1395 1394 1392 1391 1390 1389 1388 1387 1386 1385 1383 1382 1381 1380 1379 1377 1376 1374 1372 1370 1368 1366 1364
1466 1465 1464 1463 1462 1461 1460 1459 1459 1458 1457 1457 1456 1455 1454 1453 1451 1449 1447 1446 1445 1444 1443 1443 1442 1441 1440 1439 1439 1438 1438 1437 1436 1435 1435 1434 1432 1431 1429 1428 1427 1425 1423 1421 1419 1418 1417 1415 1414 1412 1411 1409 1408 1407 1406 1404 1403 1402 1401 1400 1398 1397 1395 1394 1392 1391 1390 1389 1388 1387 1386 1384 1383 1382 1381 1380 1379 1377 1376 1374 1372 1370 1368 1366 1364 1362
1463 1462 1462 1461 1460 1459 1458 1457 1457 1456 1455 1455 1454 1453 1452 1451 1449 1447 1446 1445 1444 1443 1442 1441 1441 1440 1439 1438 1438 1437 1437 1436 1435 1434 1433 1432 1431 1430 1428 1427 1426 1424 1422 1420 1417 1416 1415 1414 1413 1411 1409 1408 1407 1406 1404 1403 1402 1401 1399 1398 1397 1396 1394 1393 1391 1390 1389 1388 1387 1386 1385 1383 1382 1382 1380 1379 1377 1376 1374 1372 1370 1368 1367 1365 1363 1361
1461 1460 1460 1460 1459 1458 1457 1456 1455 1454 1453 1452 1451 1451 1450 1449 1447 1446 1444 1443 1442 1441 1440 1440 1439 1438 1438 1437 1437 1436 1435 1434 1434 1433 1432 1432 1430 1428 1427 1426 1425 1423 1422 1420 1417 1414 1412 1411 1411 1410 1408 1407 1406 1404 1403 1402 1400 1399 1398 1397 1396 1394 1393 1392 1390 1389 1388 1387 1386 1385 1384 1382 1382 1380 1379 1377 1376 1374 1372 1371 1369 1367 1365 1363 1361 1359
1458 1458 1457 1457 1457 1456 1455 1454 1453 1452 1451 1450 1449 1448 1447 1446 1445 1444 1443 1442 1441 1440 1439 1438 1438 1437 1437 1436 1435 1435 1434 1433 1433 1432 1431 1430 1429 1427 1426 1425 1424 1423 1422 1420 1418 1415 1412 1409 1408 1407 1407 1406 1404 1403 1402 1401 1399 1398 1397 1395 1394 1393 1392 1391 1389 1388 1387 1386 1385 1384 1383 1382 1380 1379 1377 1376 1374 1372 1371 1369 1368 1366 1364 1362 1360 1358
1457 1456 1455 1455 1454 1453 1452 1452 1451 1450 1449 1448 1447 1446 1445 1444 1443 1442 1441 1440 1439 1438 1438 1437 1437 1436 1436 1435 1435 1434 1433 1433 1432 1431 1430 1429 1428 1426 1425 1424 1423 1422 1421 1420 1419 1417 1414 1409 1406 1405 1405 1404 1403 1402 1401 1400 1398 1397 1396 1394 1393 1392 1391 1389 1388 1387 1386 1385 1384 1383 1382 1380 1379 1377 1376 1374 1372 1371 1369 1368 1366 1365 1362 1360 1358 1356
1455 1454 1453 1452 1452 1451 1450 1449 1448 1447 1447 1446 1445 1444 1443 1442 1441 1440 1439 1438 1437 1437 1437 1436 1436 1435 1434 1434 1434 1433 1432 1432 1431 1430 1429 1428 1427 1426 1425 1424 1422 1422 1420 1419 1418 1417 1415 1412 1408 1405 1403 1402 1402 1401 1400 1399 1397 1396 1395 1393 1392 1390 1389 1388 1387 1386 1385 1383 1382 1381 1380 1378 1377 1376 1374 1372 1371 1369 1368 1366 1365 1363 1362 1359 1357 1355
1453 1452 1451 1451 1450 1449 1448 1447 1447 1446 1445 1444 1443 1442 1441 1440 1439 1438 1437 1436 1436 1436 1435 1435 1435 1434 1433 1433 1432 1432 1432 1431 1430 1429 1428 1427 1426 1425 1424 1423 1422 1421 1419 1418 1417 1415 1413 1411 1409 1406 1403 1401 1400 1400 1399 1398 1397 1395 1394 1392 1391 1389 1388 1387 1386 1384 1383 1382 1381 1379 1378 1377 1375 1373 1372 1371 1369 1367 1366 1364 1363 1362 1360 1358 1356 1354
1451 1450 1449 1449 1447 1447 1446 1445 1444 1443 1443 1442 1441 1440 1439 1438 1437 1436 1436 1435 1434 1434 1434 1433 1433 1433 1433 1432 1432 1431 1431 1430 1429 1428 1427 1427 1426 1424 1423 1422 1421 1420 1419 1417 1416 1414 1412 1410 1408 1406 1404 1401 1399 1398 1398 1397 1396 1394 1393 1392 1390 1389 1387 1386 1385 1383 1382 1381 1379 1378 1376 1375 1373 1372 1370 1369 1367 1366 1364 1362 1361 1359 1358 1356 1354 1352
1449 1448 1447 1447 1446 1444 1443 1443 1442 1441 1441 1440 1439 1438 1437 1436 1435 1435 1434 1433 1433 1432 1432 1432 1432 1432 1432 1432 1431 1431 1430 1429 1428 1427 1427 1426 1425 1424 1423 1422 1421 1420 1418 1417 1415 1413 1412 1409 1407 1405 1404 1401 1399 1397 1396 1396 1395 1393 1392 1391 1390 1388 1387 1386 1384 1382 1381 1380 1378 1377 1375 1373 1372 1370 1368 1367 1365 1364 1362 1360 1359 1357 1355 1354 1352 1351
1447 1446 1445 1445 1444 1442 1442 1441 1440 1439 1438 1437 1437 1436 1435 1434 1434 1433 1433 1432 1432 1432 1431 1431 1431 1431 1431 1431 1431 1430 1429 1429 1428 1427 1426 1425 1424 1423 1422 1421 1420 1419 1418 1416 1414 1412 1411 1408 1406 1404 1403 1401 1399 1397 1395 1394 1393 1392 1391 1390 1389 1387 1386 1385 1383 1382 1381 1379 1377 1376 1374 1372 1371 1369 1367 1365 1363 1361 1359 1358 1356 1355 1353 1352 1350 1349
1445 1444 1443 1442 1442 1441 1440 1439 1438 1437 1436 1435 1435 1434 1433 1433 1433 1432 1432 1431 1431 1431 1431 1431 1431 1431 1431 1430 1430 1429 1429 1428 1427 1426 1425 1424 1423 1422 1421 1420 1419 1418 1417 1416 1414 1412 1410 1408 1406 1403 1402 1400 1398 1397 1395 1393 1392 1391 1390 1389 1388 1387 1385 1384 1383 1382 1380 1378 1377 1375 1373 1372 1370 1368 1366 1363 1361 1359 1357 1355 1353 1352 1351 1349 1347 1346
1444 1443 1442 1441 1440 1439 1438 1437 1436 1435 1435 1434 1433 1433 1432 1432 1432 1431 1431 1431 1431 1431 1431 1431 1430 1430 1430 1430 1429 1429 1428 1427 1426 1425 1424 1424 1423 1422 1421 1419 1418 1417 1416 1415 1413 1412 1410 1408 1406 1404 1402 1399 1397 1396 1395 1393 1392 1390 1389 1387 1386 1386 1385 1384 1382 1381 1379 1377 1376 1374 1372 1371 1369 1367 1364 1362 1360 1357 1355 1353 1352 1350 1348 1347 1345 1344
1442 1441 1440 1440 1439 1438 1437 1436 1435 1434 1433 1433 1432 1432 1432 1431 1431 1431 1430 1430 1430 1430 1430 1430 1430 1430 1429 1429 1429 1428 1427 1426 1425 1425 1424 1423 1422 1421 1420 1419 1417 1416 1415 1413 1412 1411 1409 1407 1405 1403 1402 1400 1397 1395 1394 1392 1392 1390 1388 1386 1385 1384 1383 1382 1382 1380 1378 1377 1375 1373 1371 1369 1367 1365 1363 1361 1359 1357 1354 1352 1350 1349 1347 1346 1344 1342
1441 1440 1439 1438 1437 1437 1436 1435 1434 1433 1432 1432 1431 1431 1431 1431 1430 1430 1430 1430 1430 1430 1430 1430 1430 1429 1429 1429 1428 1427 1427 1426 1425 1424 1423 1422 1421 1420 1419 1418 1417 1415 1414 1412 1411 1409 1408 1406 1404 1402 1401 1399 1397 1395 1393 1392 1391 1390 1388 1386 1385 1383 1382 1382 1380 1379 1378 1376 1375 1373 1371 1368 1366 1364 1362 1360 1357 1356 1354 1352 1350 1348 1347 1346 1344 1342
1440 1439 1438 1437 1437 1436 1435 1434 1433 1432 1432 1431 1431 1430 1430 1430 1430 1429 1429 1429 1429 1429 1429 1429 1429 1429 1429 1428 1428 1427 1426 1425 1424 1423 1422 1421 1420 1419 1418 1417 1416 1414 1412 1411 1409 1408 1406 1405 1403 1402 1400 1398 1397 1395 1393 1392 1391 1390 1388 1386 1384 1382 1381 1380 1380 1379 1377 1376 1374 1372 1370 1367 1365 1362 1360 1358 1356 1354 1353 1351 1350 1348 1347 1346 1344 1343
1440 1438 1437 1437 1436 1435 1434 1433 1432 1431 1431 1430 1430 1429 1429 1429 1429 1429 1429 1429 1429 1429 1429 1429 1429 1428 1428 1427 1427 1426 1426 1425 1423 1422 1421 1420 1419 1418 1417 1416 1414 1413 1411 1409 1407 1406 1405 1403 1402 1401 1399 1398 1396 1394 1392 1391 1390 1389 1388 1386 1384 1382 1380 1379 1378 1377 1377 1375 1373 1371 1369 1366 1364 1361 1359 1357 1355 1353 1352 1351 1349 1348 1347 1345 1344 1342
1439 1438 1437 1436 1435 1434 1433 1432 1431 1430 1430 1429 1429 1429 1429 1429 1429 1428 1428 1429 1429 1429 1429 1429 1428 1428 1427 1427 1426 1426 1425 1424 1423 1422 1420 1419 1418 1417 1416 1414 1413 1411 1410 1408 1406 1404 1403 1402 1401 1400 1398 1397 1396 1394 1392 1391 1390 1388 1387 1386 1385 1383 1381 1379 1378 1376 1375 1374 1372 1370 1368 1366 1363 1360 1358 1356 1354 1353 1351 1350 1349 1347 1346 1345 1343 1342
1438 1437 1436 1435 1434 1433 1432 1431 1430 1430 1429 1429 1428 1428 1428 1428 1428 1428 1429 1429 1429 1429 1429 1428 1428 1427 1427 1426 1425 1424 1424 1423 1422 1421 1420 1418 1417 1416 1414 1413 1412 1410 1408 1407 1405 1403 1402 1400 1399 1398 1397 1396 1395 1394 1392 1391 1390 1388 1387 1386 1385 1383 1382 1380 1378 1377 1375 1373 1371 1369 1367 1365 1362 1360 1357 1355 1354 1352 1351 1350 1348 1347 1346 1344 1343 1342
1437 1436 1435 1434 1433 1432 1432 1431 1430 1429 1429 1428 1428 1428 1428 1428 1429 1429 1429 1429 1429 1429 1428 1428 1427 1427 1426 1425 1424 1423 1423 1422 1421 1420 1419 1418 1417 1415 1414 1412 1411 1409 1407 1406 1404 1403 1401 1399 1398 1397 1396 1395 1394 1393 1392 1391 1390 1388 1387 1385 1384 1383 1382 1380 1379 1377 1375 1372 1370 1368 1366 1364 1362 1359 1357 1355 1353 1352 1351 1350 1348 1347 1346 1345 1344 1343
1436 1435 1434 1433 1432 1432 1431 1430 1430 1429 1429 1429 1428 1428 1428 1429 1429 1429 1429 1429 1429 1428 1428 1427 1427 1426 1426 1425 1424 1423 1422 1421 1420 1419 1418 1417 1416 1414 1413 1412 1410 1408 1407 1405 1403 1402 1400 1399 1397 1396 1396 1395 1394 1393 1392 1391 1390 1388 1387 1385 1384 1382 1381 1379 1378 1376 1374 1372 1370 1367 1365 1363 1361 1359 1357 1355 1353 1352 1351 1350 1349 1348 1347 1346 1345 1344
1436 1435 1434 1433 1432 1432 1431 1431 1430 1429 1429 1429 1429 1429 1429 1429 1429 1429 1429 1429 1429 1428 1427 1427 1426 1426 1425 1424 1423 1422 1421 1420 1419 1418 1417 1415 1414 1413 1412 1410 1408 1407 1405 1404 1402 1401 1400 1398 1397 1396 1395 1394 1393 1392 1392 1391 1389 1388 1386 1385 1383 1382 1380 1379 1377 1375 1373 1372 1369 1367 1365 1363 1361 1359 1357 1355 1354 1352 1352 1351 1350 1349 1348 1347 1346 1344
1435 1434 1434 1433 1432 1432 1431 1431 1430 1430 1429 1429 1429 1429 1429 1429 1429 1429 1429 1429 1428 1427 1427 1427 1426 1426 1425 1424 1423 1422 1421 1420 1418 1417 1416 1415 1413 1412 1410 1408 1407 1405 1404 1402 1402 1401 1399 1398 1397 1395 1395 1394 1393 1392 1391 1390 1388 1387 1386 1385 1383 1382 1380 1378 1376 1375 1373 1371 1369 1367 1365 1363 1362 1360 1358 1356 1355 1354 1352 1352 1351 1350 1349 1347 1346 1345
1434 1434 1433 1433 1432 1432 1431 1431 1430 1430 1429 1429 1429 1429 1430 1430 1430 1429 1429 1429 1428 1427 1427 1426 1426 1425 1424 1423 1422 1421 1420 1419 1418 1417 1415 1414 1412 1411 1409 1407 1405 1404 1402 1401 1400 1399 1398 1398 1397 1395 1394 1394 1393 1392 1390 1389 1388 1387 1386 1385 1383 1382 1380 1377 1376 1374 1372 1370 1368 1366 1365 1363 1362 1361 1359 1358 1356 1355 1353 1352 1351 1350 1349 1348 1347 1345
1434 1433 1433 1432 1432 1432 1431 1431 1430 1430 1430 1430 1430 1430 1430 1430 1430 1429 1429 1428 1428 1427 1427 1426 1426 1425 1424 1423 1422 1421 1420 1419 1417 1417 1415 1414 1412 1410 1408 1407 1405 1403 1402 1400 1399 1398 1397 1397 1396 1396 1395 1394 1393 1392 1391 1389 1387 1386 1385 1384 1383 1382 1379 1377 1375 1373 1372 1370 1368 1366 1364 1363 1362 1361 1360 1358 1357 1356 1354 1353 1352 1351 1349 1348 1347 1346